User: anonymous   Login
Location: Albany
(35.0000°S, 118.0000°E)
Time: 07:15:49
(UTC-05:00)
Language:

ERS-1 Rocket - Orbit

View from above orbital plane
View from above orbital plane
View from above satellite
View from above satellite

Ground track
Ground track

The orbit data is extracted from the following two-line orbital elements,

1 21610U 91050F   16338.76138817  .00000027  00000-0  22681-4 0  9999
2 21610  98.6343  27.8349 0003703 151.5634 316.2929 14.40774355331971
Epoch (UTC): 03 December 2016 18:16:23
Eccentricity: 0.0003703
inclination: 98.6343°
perigee height: 753 km
apogee height: 758 km
right ascension of ascending node: 27.8349°
argument of perigee: 151.5634°
revolutions per day: 14.40774355
mean anomaly at epoch: 316.2929°
orbit number at epoch: 33197

The dashed part of the orbit path shows where the satellite is in the earth's shadow,  

DLR